Air Quality Table

TIMESTAMP NO2 SO2 O3 PM10 PM2.5 TEMP HUM AIRPRES WS WD NO
2023-02-02 03:00 4.58 µg/m3 0.25 µg/m3 80.75 µg/m3 10.79 µg/m3 7.3 µg/m3 12.62 °C 73.04 % 1,017.90 mbar 1.47 m/s 286.1 Deg -0.08 µg/m3
2023-02-02 02:00 3.71 µg/m3 0.29 µg/m3 80.38 µg/m3 15.79 µg/m3 7.63 µg/m3 12.3 °C 72.64 % 1,018.29 mbar 1.73 m/s 286.62 Deg -0.06 µg/m3
2023-02-02 01:00 5.96 µg/m3 0.31 µg/m3 81.13 µg/m3 22.12 µg/m3 10.95 µg/m3 12.22 °C 69.89 % 1,018.78 mbar 1.7 m/s 282.67 Deg -0.09 µg/m3
2023-02-02 00:00 13.16 µg/m3 0.32 µg/m3 72.97 µg/m3 31.18 µg/m3 7.58 µg/m3 11.89 °C 69.41 % 1,019.22 mbar 1.69 m/s 288.55 Deg 0.29 µg/m3
2023-02-01 23:00 27.74 µg/m3 0.38 µg/m3 55.11 µg/m3 34.3 µg/m3 7.58 µg/m3 11.34 °C 69.9 % 1,019.24 mbar 1.56 m/s 297.53 Deg 1.43 µg/m3
2023-02-01 22:00 34.85 µg/m3 0.42 µg/m3 46.75 µg/m3 35.03 µg/m3 11.04 µg/m3 11.14 °C 67.14 % 1,019.19 mbar 1.43 m/s 294.85 Deg 1.72 µg/m3
2023-02-01 21:00 58.67 µg/m3 0.51 µg/m3 27.09 µg/m3 35.77 µg/m3 9.93 µg/m3 11.33 °C 65.42 % 1,019.38 mbar 1.26 m/s 297.15 Deg 3.99 µg/m3
2023-02-01 20:00 76.46 µg/m3 0.61 µg/m3 18.76 µg/m3 33.22 µg/m3 7.87 µg/m3 11.82 °C 62 % 1,019.55 mbar 0.87 m/s 285.73 Deg 14.25 µg/m3
2023-02-01 19:00 72.39 µg/m3 0.52 µg/m3 22.52 µg/m3 20.07 µg/m3 6.94 µg/m3 11.89 °C 64.24 % 1,019.44 mbar 1.01 m/s 301.82 Deg 7.74 µg/m3
2023-02-01 18:00 44.92 µg/m3 0.39 µg/m3 51.9 µg/m3 17.72 µg/m3 7.1 µg/m3 12.81 °C 61.09 % 1,018.97 mbar 1.29 m/s 288.47 Deg 2.83 µg/m3
2023-02-01 17:00 14.24 µg/m3 0.34 µg/m3 81.83 µg/m3 13.75 µg/m3 8.13 µg/m3 13.7 °C 57.53 % 1,018.60 mbar 1.84 m/s 238.63 Deg 0.82 µg/m3
2023-02-01 16:00 7.89 µg/m3 0.35 µg/m3 88.84 µg/m3 16.17 µg/m3 5.32 µg/m3 13.85 °C 55.4 % 1,018.60 mbar 2.18 m/s 213.15 Deg 0.78 µg/m3
2023-02-01 15:00 8.86 µg/m3 0.4 µg/m3 87.58 µg/m3 13.61 µg/m3 5.25 µg/m3 14.16 °C 54.28 % 1,018.56 mbar 2.25 m/s 191.13 Deg 0.91 µg/m3
2023-02-01 14:00 9.13 µg/m3 0.48 µg/m3 85.77 µg/m3 15.23 µg/m3 5.9 µg/m3 14.13 °C 53.25 % 1,018.61 mbar 2.29 m/s 175.23 Deg 1.13 µg/m3
2023-02-01 13:00 5.87 µg/m3 0.48 µg/m3 86.96 µg/m3 25.25 µg/m3 7.45 µg/m3 14.17 °C 50.48 % 1,019.14 mbar 2.06 m/s 156.32 Deg 0.56 µg/m3
2023-02-01 12:00 5.89 µg/m3 0.54 µg/m3 83.52 µg/m3 38.74 µg/m3 9.54 µg/m3 14.23 °C 51.11 % 1,019.76 mbar 1.81 m/s 188.12 Deg 0.61 µg/m3
2023-02-01 11:00 13.96 µg/m3 0.6 µg/m3 74.16 µg/m3 57.74 µg/m3 12.42 µg/m3 14.17 °C 52.4 % 1,020.06 mbar 1.12 m/s 218.72 Deg 2.32 µg/m3
2023-02-01 10:00 46.91 µg/m3 0.96 µg/m3 41.61 µg/m3 73.19 µg/m3 21.08 µg/m3 13.41 °C 58.33 % 1,019.88 mbar 0.97 m/s 257.12 Deg 26.78 µg/m3
2023-02-01 09:00 87.62 µg/m3 1.72 µg/m3 8.11 µg/m3 50.82 µg/m3 14.62 µg/m3 11.48 °C 65.58 % 1,019.43 mbar 1.04 m/s 313.08 Deg 95.65 µg/m3
2023-02-01 08:00 82.99 µg/m3 0.99 µg/m3 5.38 µg/m3 23.19 µg/m3 13.21 µg/m3 9.81 °C 68.32 % 1,019.01 mbar 1.57 m/s 312.93 Deg 52.64 µg/m3
2023-02-01 07:00 68.77 µg/m3 0.61 µg/m3 12.24 µg/m3 11.05 µg/m3 8.7 µg/m3 9.44 °C 72.47 % 1,018.47 mbar 2.03 m/s 302.25 Deg 23.2 µg/m3
2023-02-01 06:00 34.32 µg/m3 0.32 µg/m3 34.68 µg/m3 10.4 µg/m3 5.75 µg/m3 9.45 °C 75.82 % 1,018.00 mbar 1.81 m/s 305.82 Deg 4.5 µg/m3
2023-02-01 05:00 12.46 µg/m3 0.29 µg/m3 55.93 µg/m3 11.85 µg/m3 6.05 µg/m3 10.03 °C 70.07 % 1,017.61 mbar 1.61 m/s 306.23 Deg 0.11 µg/m3
2023-02-01 04:00 8.72 µg/m3 0.36 µg/m3 69.83 µg/m3 12.52 µg/m3 7.44 µg/m3 11.32 °C 60.38 % 1,017.23 mbar 1.25 m/s 171.78 Deg 0.36 µg/m3
2023-02-01 03:00 3.54 µg/m3 0.26 µg/m3 79.68 µg/m3 13.23 µg/m3 8.39 µg/m3 11.78 °C 56.52 % 1,017.19 mbar 1.55 m/s 14.58 Deg -0.14 µg/m3
2023-02-01 02:00 3.26 µg/m3 0.23 µg/m3 77.85 µg/m3 14.96 µg/m3 6.33 µg/m3 11.94 °C 61.93 % 1,017.02 mbar 1.94 m/s 16.88 Deg -0.13 µg/m3
2023-02-01 01:00 3.99 µg/m3 0.19 µg/m3 76.77 µg/m3 20.48 µg/m3 6.09 µg/m3 12.3 °C 65.01 % 1,016.74 mbar 2.2 m/s 14.25 Deg -0.12 µg/m3
2023-02-01 00:00 3.99 µg/m3 0.2 µg/m3 79.38 µg/m3 19.37 µg/m3 6.52 µg/m3 12.77 °C 61.21 % 1,016.50 mbar 3.48 m/s 9.68 Deg -0.06 µg/m3
2023-01-31 23:00 3.4 µg/m3 0.19 µg/m3 80.04 µg/m3 18.79 µg/m3 6.93 µg/m3 13.06 °C 65.88 % 1,016.06 mbar 3.94 m/s 93.27 Deg 0.09 µg/m3
2023-01-31 22:00 4.97 µg/m3 0.2 µg/m3 78.72 µg/m3 18.21 µg/m3 8.32 µg/m3 13.54 °C 67.81 % 1,015.55 mbar 4.41 m/s 351.53 Deg 0.16 µg/m3
2023-01-31 21:00 9.99 µg/m3 0.2 µg/m3 72.91 µg/m3 24.74 µg/m3 9.37 µg/m3 13.44 °C 69.74 % 1,015.11 mbar 4.02 m/s 339.2 Deg 0.24 µg/m3
2023-01-31 20:00 16.76 µg/m3 0.25 µg/m3 66.69 µg/m3 24.32 µg/m3 5.34 µg/m3 13.42 °C 70.42 % 1,014.61 mbar 3.73 m/s 338.05 Deg 1.02 µg/m3
2023-01-31 19:00 20.95 µg/m3 0.27 µg/m3 65.44 µg/m3 27.86 µg/m3 5.97 µg/m3 13.32 °C 67.88 % 1,014.39 mbar 3.39 m/s 330.95 Deg 2.2 µg/m3
2023-01-31 18:00 16.49 µg/m3 0.26 µg/m3 70.19 µg/m3 24.16 µg/m3 7.87 µg/m3 13.7 °C 64.98 % 1,013.87 mbar 4.2 m/s 339.23 Deg 1.27 µg/m3
2023-01-31 17:00 13.68 µg/m3 0.27 µg/m3 75.1 µg/m3 15.68 µg/m3 8.21 µg/m3 14.23 °C 63.52 % 1,013.17 mbar 5.05 m/s 342.23 Deg 1.7 µg/m3
2023-01-31 16:00 12.01 µg/m3 0.25 µg/m3 77.49 µg/m3 19.91 µg/m3 9.69 µg/m3 14.23 °C 64.02 % 1,012.87 mbar 4.97 m/s 337.17 Deg 3.26 µg/m3
2023-01-31 15:00 13.78 µg/m3 0.25 µg/m3 76.55 µg/m3 25.16 µg/m3 5.88 µg/m3 14.12 °C 63.3 % 1,012.93 mbar 4.21 m/s 330.2 Deg 2.97 µg/m3
2023-01-31 14:00 10.71 µg/m3 0.24 µg/m3 79.33 µg/m3 24.89 µg/m3 5.65 µg/m3 14.38 °C 61.89 % 1,013.10 mbar 4.46 m/s 328.25 Deg 2.01 µg/m3
2023-01-31 13:00 9.72 µg/m3 0.26 µg/m3 82.77 µg/m3 21.95 µg/m3 5.37 µg/m3 14.78 °C 57.7 % 1,013.27 mbar 4.89 m/s 328.83 Deg 2.14 µg/m3
2023-01-31 12:00 11.94 µg/m3 0.25 µg/m3 78.34 µg/m3 20.2 µg/m3 6.81 µg/m3 14.55 °C 58.77 % 1,013.89 mbar 4.99 m/s 333.23 Deg 2.44 µg/m3
2023-01-31 11:00 11.6 µg/m3 0.26 µg/m3 75.96 µg/m3 28.83 µg/m3 7.47 µg/m3 14.34 °C 62.81 % 1,014.28 mbar 4.85 m/s 338.08 Deg 2.6 µg/m3
2023-01-31 10:00 15.68 µg/m3 0.31 µg/m3 70.59 µg/m3 24.58 µg/m3 8.76 µg/m3 13.98 °C 65.28 % 1,014.06 mbar 4.22 m/s 336.23 Deg 3.27 µg/m3
2023-01-31 09:00 25.81 µg/m3 0.38 µg/m3 60.18 µg/m3 15.05 µg/m3 9.75 µg/m3 13.48 °C 64.05 % 1,013.75 mbar 3.35 m/s 325.18 Deg 5.4 µg/m3
2023-01-31 08:00 30.28 µg/m3 0.3 µg/m3 55.48 µg/m3 8.03 µg/m3 5.34 µg/m3 12.46 °C 70.61 % 1,013.72 mbar 2.73 m/s 329.8 Deg 4.43 µg/m3
2023-01-31 07:00 25.43 µg/m3 0.29 µg/m3 59.62 µg/m3 8.34 µg/m3 6.19 µg/m3 12.22 °C 71.83 % 1,013.38 mbar 2.78 m/s 323.48 Deg 2.92 µg/m3
2023-01-31 06:00 18.33 µg/m3 0.28 µg/m3 60.28 µg/m3 7.48 µg/m3 5.41 µg/m3 11.35 °C 77.79 % 1,013.42 mbar 1.95 m/s 315.15 Deg 1.27 µg/m3
2023-01-31 05:00 6.69 µg/m3 0.2 µg/m3 70.98 µg/m3 7.99 µg/m3 6.51 µg/m3 11.28 °C 80.37 % 1,013.55 mbar 1.7 m/s 316.78 Deg 0.19 µg/m3

It is to be noted that the data is provisional and subject to quality assurance procedures. For validated data kindly refer your request to contact.air@era.org.mt